Weather in Matveyevka

Russia / Ulyanovsk Oblast     54°46′40″N   49°11′51″E
temp.,
°C
wind,
m/s
gust,
m/s
humid.,
%
clouds,
%
prec.,
mm/h
press.,
hPa
HPBL,
m
6 march, sat
sat601:00−12sw34940 0.0 101045
04:00−10sw479530 0.1 1011191
07:00−13wsw349771 0.0 101278
10:00−10wnw489173 0.1 1014382
13:00−10nw478852 0.0 1014446
16:00−9wnw358631 0.0 1014421
19:00−14sw33911 0.0 101427
22:00−15sw23921 0.0 101423
7 march, sun
sun701:00−16sw239144 0.0 101320
04:00−15sw229653 0.1 101343
07:00−14sw239799 0.1 101270
10:00−13sw359592 0.2 1012212
13:00−10sw469298 0.1 1010361
16:00−7ssw488999 0.1 1008641
19:00−9s5118994 0.0 1006273
22:00−7s7149497 0.6 1003823
8 march, mon
mon801:00−6s81493100 1.6 998907
04:00−5ssw81495100 3.1 997944
07:00−10wsw498567 0.6 998197
10:00−9sw5108459 0.6 1000411
13:00−5ssw6117864 0.0 1000606
16:00−4s6107782 0.0 998684
19:00−4s6129685 0.3 995644
22:00−9sw8159187 0.6 995564
9 march, tue
tue901:00−8w61391100 0.8 997547
04:00−10wsw61389100 0.9 1000546
07:00−11w6138996 0.0 1003489
10:00−11w5108994 0.0 1006555
13:00−10w5788100 0.1 1008643
16:00−10w4687100 0.1 1010758
19:00−13w3395100 0.1 101170
22:00−15w339699 0.1 101279
10 march, wed
wed1001:00−16w369697 0.1 1013158
04:00−16wnw369698 0.2 1014154
07:00−17wnw379699 0.1 1014213
10:00−17nw4794100 0.3 1015340
13:00−15nw469098 0.1 1016508
16:00−15nw468999 0.1 1017582
19:00−20wnw339696 0.0 101947
22:00−21nw359891 0.1 1021126